Precipitable_Water
1.68 1.11 1.17 1.27 1.32 1.33 1.25 1.42 1.24 1.12 1.18 1.24 1.07 1.10 1.07 0.96 0.98 1.00 0.92 0.84 0.84 0.80 0.75 0.70 0.67 0.67 0.63 0.61 0.58 0.57 0.58 0.62 0.66 0.69 0.71 0.75 0.76 0.76
1.39 1.14 1.15 1.23 1.32 1.30 1.27 1.19 1.37 1.22 1.15 1.28 1.17 1.14 1.07 1.02 1.01 1.04 0.95 0.86 0.85 0.85 0.79 0.74 0.71 0.69 0.67 0.64 0.60 0.58 0.57 0.57 0.58 0.59 0.60 0.64 0.70 0.74
1.28 1.10 1.04 1.18 1.22 1.23 1.15 1.12 1.14 1.21 1.16 1.29 1.27 1.20 1.13 1.00 0.99 1.04 0.96 0.95 0.90 0.86 0.83 0.78 0.74 0.72 0.71 0.68 0.64 0.63 0.64 0.62 0.60 0.60 0.59 0.61 0.62 0.65
1.18 1.03 0.97 1.03 1.12 1.15 0.99 1.03 1.19 1.22 1.23 1.10 1.14 1.17 1.12 1.08 1.10 1.04 1.09 1.12 1.04 0.90 0.85 0.80 0.78 0.74 0.71 0.73 0.71 0.69 0.68 0.68 0.67 0.65 0.60 0.60 0.62 0.64
1.09 0.95 0.94 0.99 0.95 1.05 0.94 0.93 1.11 1.14 1.29 1.13 1.19 1.20 1.17 1.17 1.11 1.14 1.09 1.20 1.16 1.07 0.95 0.83 0.80 0.78 0.76 0.76 0.76 0.74 0.72 0.71 0.72 0.72 0.66 0.62 0.61 0.63
1.06 0.95 0.94 0.93 0.90 0.88 0.77 0.93 1.06 1.10 1.15 1.18 1.08 1.10 1.16 1.20 1.13 1.07 1.01 1.14 1.18 1.11 1.00 0.94 0.92 0.87 0.83 0.79 0.78 0.79 0.81 0.76 0.75 0.75 0.70 0.63 0.61 0.64
0.99 0.88 0.87 0.91 0.88 0.95 1.08 1.06 1.07 1.01 0.98 1.00 0.96 1.00 0.99 1.08 0.95 1.09 1.10 1.17 1.16 1.05 1.10 1.05 1.02 1.01 0.99 0.95 0.89 0.86 0.86 0.83 0.80 0.79 0.76 0.67 0.64 0.64
0.79 0.72 0.86 0.69 0.78 0.92 1.07 1.11 1.05 0.92 0.94 0.95 0.95 0.91 0.94 0.90 1.00 1.01 0.96 1.06 0.89 1.06 0.97 1.02 0.96 0.91 1.06 1.08 1.05 1.00 0.88 0.84 0.82 0.84 0.81 0.75 0.68 0.68
0.71 0.72 0.72 0.77 0.78 0.84 0.94 0.96 0.93 0.97 1.07 1.06 0.99 0.98 1.00 0.89 0.94 0.88 0.95 1.00 0.99 1.12 1.01 0.94 1.08 0.87 1.00 1.03 1.07 0.99 0.92 0.90 0.89 0.89 0.86 0.81 0.74 0.72
0.73 0.73 0.79 0.84 0.87 0.84 0.87 0.89 0.89 0.90 0.97 0.96 1.07 1.07 1.01 0.92 0.94 0.91 1.03 1.03 1.09 1.08 1.01 0.85 0.99 0.90 1.07 1.12 1.14 1.04 1.00 0.98 0.95 0.95 0.91 0.85 0.77 0.76
0.69 0.71 0.74 0.80 0.88 0.90 0.94 0.92 0.93 0.94 0.95 0.95 1.03 0.99 0.94 0.93 0.97 1.01 0.93 0.90 0.88 0.91 0.98 0.85 0.95 0.90 1.02 1.11 1.26 1.20 1.13 1.10 1.10 1.08 0.99 0.89 0.81 0.78
0.65 0.70 0.68 0.72 0.75 0.88 0.96 0.92 0.85 0.85 0.80 0.79 0.79 0.79 0.84 0.84 0.86 0.96 1.01 0.91 0.90 0.87 1.00 0.83 0.95 0.93 0.93 1.09 1.13 1.23 1.27 1.28 1.22 1.18 1.12 0.98 0.89 0.87
0.67 0.69 0.69 0.73 0.63 0.68 0.81 0.84 0.83 0.86 0.81 0.82 0.82 0.85 0.87 0.87 0.80 0.86 1.02 1.00 0.93 0.90 1.09 0.99 0.95 0.97 0.92 0.93 1.05 1.13 1.22 1.33 1.35 1.33 1.21 1.08 0.99 0.96
0.67 0.75 0.79 0.73 0.72 0.70 0.75 0.83 0.82 0.83 0.88 0.87 0.90 0.91 0.93 0.95 0.99 1.01 0.96 0.99 1.08 1.08 1.17 1.11 0.92 1.02 1.01 1.00 1.00 1.12 1.24 1.34 1.36 1.30 1.26 1.13 1.04 1.02
0.74 0.82 0.90 0.89 0.87 0.82 0.76 0.79 0.79 0.77 0.82 0.88 0.90 0.96 1.01 1.05 1.08 1.10 1.12 1.09 1.03 1.09 1.11 1.18 0.97 1.01 1.11 1.09 1.06 1.10 1.14 1.23 1.35 1.33 1.24 1.14 1.05 1.03
0.89 0.83 0.83 0.90 0.93 0.89 0.88 0.82 0.80 0.80 0.75 0.80 0.88 0.96 1.03 1.04 1.03 1.06 1.03 1.05 0.98 0.96 1.03 1.07 1.06 1.02 1.06 1.16 1.17 1.18 1.25 1.21 1.34 1.32 1.23 1.14 1.08 1.03
0.92 0.89 0.85 0.82 0.84 0.86 0.88 0.91 0.87 0.81 0.80 0.83 0.87 0.90 0.93 0.96 0.96 1.01 1.00 0.99 0.95 0.96 0.97 1.10 1.19 1.21 1.14 1.11 1.10 1.16 1.22 1.25 1.34 1.31 1.19 1.09 1.08 1.03
0.95 0.81 0.79 0.86 0.82 0.82 0.85 0.87 0.88 0.83 0.81 0.82 0.83 0.88 0.87 0.88 0.89 0.94 0.97 0.94 0.89 0.91 0.93 1.03 1.12 1.11 1.14 1.13 1.22 1.13 1.21 1.22 1.32 1.27 1.19 1.10 1.07 1.05
0.97 0.90 0.81 0.85 0.89 0.88 0.84 0.85 0.80 0.80 0.85 0.84 0.83 0.83 0.83 0.82 0.81 0.85 0.90 0.90 0.87 0.89 0.94 1.00 1.03 1.05 0.99 1.00 1.18 1.22 1.16 1.25 1.31 1.23 1.18 1.13 1.05 1.01
1.09 0.94 0.87 0.83 0.85 0.86 0.84 0.81 0.81 0.81 0.80 0.80 0.81 0.82 0.81 0.79 0.78 0.79 0.83 0.84 0.86 0.88 0.92 0.98 1.01 1.04 1.02 1.05 1.11 1.21 1.27 1.25 1.31 1.21 1.15 1.12 1.11 1.06
1.14 1.05 0.93 0.91 0.88 0.85 0.86 0.86 0.86 0.83 0.84 0.81 0.82 0.85 0.87 0.85 0.81 0.80 0.79 0.78 0.80 0.83 0.87 0.99 1.13 1.20 1.24 1.26 1.21 1.18 1.23 1.28 1.40 1.26 1.17 1.08 1.01 0.99
1.35 1.22 1.17 1.09 1.01 0.95 0.91 0.89 0.88 0.86 0.85 0.86 0.89 0.91 0.91 0.89 0.85 0.82 0.76 0.74 0.77 0.84 1.01 1.19 1.28 1.30 1.27 1.17 1.19 1.19 1.18 1.22 1.39 1.36 1.25 1.15 1.05 0.92
1.46 1.45 1.40 1.35 1.27 1.14 1.03 0.95 0.92 0.88 0.88 0.88 0.87 0.88 0.90 0.89 0.91 0.89 0.90 0.94 1.01 1.10 1.19 1.24 1.29 1.33 1.28 1.22 1.21 1.21 1.19 1.15 1.23 1.23 1.18 1.21 1.19 1.14
Wind_Speed
7 6 6 5 4 3 2 3 1 4 4 5 5 5 6 6 6 7 9 10 11 12 13 13 14 15 15 15 15 15 15 15 15 15 15 15 15 15
8 7 7 5 5 4 2 2 3 4 5 3 3 3 4 4 4 5 7 8 10 11 12 12 12 13 14 15 15 16 16 16 16 16 16 16 16 15
8 8 8 6 5 4 3 3 3 4 4 3 2 2 2 3 4 4 6 6 9 10 10 11 11 12 12 13 14 15 16 16 17 17 17 17 17 15
10 9 8 7 6 4 3 2 4 4 4 1 2 1 1 1 2 3 4 4 7 9 9 9 10 10 11 12 14 15 16 17 17 18 18 18 18 17
11 10 9 8 7 5 4 2 3 4 2 1 1 0 1 0 2 2 4 5 7 7 9 8 9 10 10 12 14 15 16 17 18 18 18 18 18 19
12 11 10 9 8 6 4 2 1 2 2 1 1 2 1 0 1 1 4 5 6 6 8 8 10 10 11 12 14 15 17 18 18 18 18 18 19 19
13 12 11 10 8 6 3 3 0 2 2 0 2 1 1 0 1 2 3 5 6 6 8 9 10 11 12 13 14 15 17 18 19 19 20 20 20 20
14 13 11 11 10 7 4 2 1 2 1 1 2 2 0 1 1 2 3 4 6 7 9 10 11 13 12 14 14 16 18 19 19 20 21 22 21 21
15 14 13 12 11 9 6 3 0 2 2 1 1 1 2 2 2 3 5 5 6 8 10 11 11 14 14 14 14 17 19 20 20 21 23 22 22 21
16 15 14 13 12 10 8 5 1 2 2 2 2 2 2 2 2 2 4 5 7 8 10 12 11 14 15 14 16 18 20 21 22 23 24 23 23 23
17 16 16 15 13 11 9 6 3 1 2 2 1 0 0 1 1 3 4 5 7 9 10 11 13 14 15 16 17 19 21 22 22 25 25 24 23 23
18 18 17 16 15 13 10 8 5 2 0 2 1 1 1 1 2 3 5 6 8 10 11 12 14 15 17 17 18 20 23 24 24 26 26 25 23 23
19 19 19 17 15 14 12 10 7 5 2 0 1 1 1 2 3 5 7 8 10 12 12 14 16 17 19 21 21 22 24 26 28 27 27 27 23 23
20 19 19 19 17 15 14 11 9 8 6 4 3 3 4 5 6 7 9 10 12 14 15 17 19 20 22 23 23 23 24 26 30 30 30 27 23 24
20 20 20 20 18 16 16 14 13 11 10 8 8 8 8 9 9 10 12 14 16 17 19 20 22 23 24 25 25 25 27 28 34 32 30 26 22 24
20 20 21 21 20 18 17 17 16 15 13 13 12 12 12 12 13 14 15 17 19 21 22 24 25 25 26 27 27 28 29 29 32 34 31 24 22 24
23 22 22 22 22 21 20 19 18 18 17 16 16 15 16 16 17 18 19 20 22 23 25 25 26 28 28 28 29 29 29 30 33 34 30 22 22 24
24 24 24 24 24 23 22 22 21 20 20 19 20 19 20 20 21 21 22 23 25 26 28 28 28 27 29 30 30 31 33 31 33 33 29 21 23 22
25 25 26 26 26 25 25 24 23 23 22 22 22 22 23 23 24 25 25 26 28 29 30 30 29 29 30 31 31 32 32 31 31 31 26 20 22 22
26 26 27 27 27 27 26 26 25 25 25 25 25 25 25 26 26 27 28 29 30 30 31 31 31 31 32 32 33 32 30 31 28 29 23 20 22 23
26 26 27 27 28 28 27 27 27 27 27 27 27 27 28 28 29 30 31 31 31 32 32 31 32 32 32 31 31 31 30 28 27 25 21 20 21 22
25 26 27 27 28 28 29 29 29 29 29 29 29 30 30 31 31 32 32 32 32 33 32 32 32 31 30 30 30 29 28 27 27 23 21 21 20 21
27 27 27 27 28 29 29 30 30 30 30 31 31 32 32 33 32 32 32 32 32 32 32 31 30 30 30 30 29 28 26 24 23 21 20 22 22 22
Wind_Direction
225 221 218 229 233 237 264 284 314 346 335 335 356 17 17 24 34 34 34 38 39 37 35 36 35 35 34 33 30 28 25 24 20 17 12 8 5 2
224 215 218 226 227 232 267 283 316 327 337 336 348 1 17 28 36 32 34 39 36 32 29 30 32 32 31 30 28 25 22 18 12 7 3 359 355 353
219 214 215 225 222 226 253 288 313 329 353 13 348 349 8 29 36 35 29 37 29 25 26 27 29 27 25 24 23 20 16 11 7 3 360 357 355 354
215 213 216 215 214 220 242 285 322 329 326 357 352 325 327 51 31 26 19 14 15 17 18 18 19 19 20 18 16 13 11 8 5 2 360 359 357 354
211 210 213 211 209 222 239 258 310 328 342 343 331 10 120 42 26 11 28 18 1 10 12 15 14 11 9 7 6 5 4 1 0 359 358 356 355 353
206 209 212 210 208 220 229 240 301 349 321 321 187 137 112 124 4 7 8 3 1 6 5 7 2 359 356 355 355 355 355 355 355 355 355 353 350 351
206 208 210 204 201 200 209 206 174 353 335 202 172 172 219 156 296 321 337 352 1 353 353 354 349 347 343 343 344 348 349 350 349 349 348 347 345 344
206 207 206 202 199 195 187 156 34 345 341 230 215 215 271 294 304 332 333 345 348 352 348 343 347 345 340 337 336 341 344 343 344 344 343 343 341 340
205 206 203 199 196 194 192 184 60 13 354 305 278 246 255 272 318 306 322 330 339 352 344 344 346 347 347 347 342 341 341 340 340 340 340 338 337 336
203 204 202 196 195 194 194 196 212 342 351 322 269 262 269 287 294 322 339 335 337 340 348 348 349 348 349 348 345 343 341 339 338 337 336 334 333 331
203 203 201 198 198 197 198 197 196 5 11 20 33 272 276 345 332 341 343 341 340 341 341 340 343 343 344 341 338 340 340 340 338 336 334 331 330 332
203 203 200 201 200 202 204 205 207 221 49 45 54 64 43 352 321 333 340 331 334 338 336 338 337 338 336 334 335 333 336 333 333 334 333 330 326 328
204 204 204 202 203 207 213 215 218 216 209 171 51 6 337 327 316 307 323 326 326 328 330 329 332 331 331 331 330 329 329 336 333 326 325 326 321 323
206 206 206 205 208 212 216 219 221 222 231 243 261 281 295 303 310 309 311 312 317 322 325 322 322 324 324 324 325 329 329 329 332 331 326 323 318 320
210 211 208 210 212 217 221 224 226 233 241 249 262 274 284 294 299 302 304 305 306 310 312 314 316 317 318 319 320 322 324 325 334 330 326 322 319 323
213 212 212 214 218 222 226 229 234 239 246 254 263 273 281 286 291 296 299 302 304 307 305 307 308 310 311 313 314 316 320 325 328 331 326 320 318 322
216 218 218 221 224 227 232 235 238 243 249 256 263 271 277 283 288 292 296 298 300 304 306 306 306 306 307 309 310 313 317 320 327 330 328 318 321 322
221 224 224 225 228 232 235 238 242 246 252 258 264 270 275 280 285 288 292 295 299 302 304 305 306 307 306 305 306 310 315 316 321 325 323 313 320 323
226 228 229 230 233 236 239 242 246 251 255 260 265 270 274 279 282 286 290 294 297 300 302 303 303 305 308 308 310 307 312 316 317 321 318 308 316 319
230 232 233 234 236 239 242 246 250 255 258 263 266 270 274 278 282 286 289 292 295 298 300 300 300 300 302 307 311 312 308 314 313 318 315 309 313 315
233 235 235 238 240 243 246 250 253 257 260 264 266 270 273 277 282 285 289 291 293 295 298 299 301 302 303 306 310 311 310 311 311 314 312 308 314 318
236 237 240 243 245 247 249 252 255 259 262 265 268 271 273 276 281 285 287 290 293 293 294 298 303 304 303 302 308 310 307 310 309 303 302 305 311 315
239 241 244 246 248 249 251 254 256 260 264 267 269 272 273 277 281 283 286 289 292 292 295 296 299 302 303 302 303 305 305 305 312 305 304 304 304 306